Weather in Yurmy

Russia / Tyumen Oblast     57°23′04″N   68°05′47″E
temp.,
°C
wind,
m/s
gust,
m/s
humid.,
%
clouds,
%
prec.,
mm/h
press.,
hPa
HPBL,
m
1 august, sun
sun123:00+14se2291100 0.0 101026
02:00+13se259732 0.0 1010102
05:00+12se279878 0.0 1009150
08:00+15se3799100 5.2 1008205
11:00+21s478494 5.4 1007724
14:00+24sw3683100 2.1 1005999
17:00+23w498293 6.1 1004444
20:00+20wnw310940 3.5 1005389
2 august, mon
mon223:00+17w26970 3.7 1005111
02:00+16w39972 0.6 1005205
05:00+14w310974 0.6 1006247
08:00+17wnw479031 0.0 1007401
11:00+23wnw57560 0.0 10081413
14:00+25wnw574498 0.0 10082104
17:00+24wnw474884 0.0 10082171
20:00+19wnw2767100 0.0 1009153
3 august, tue
tue323:00+18w2769100 0.0 1010169
02:00+18wnw287199 0.0 1010208
05:00+16wnw237963 0.0 101170
08:00+20wnw256717 0.0 1012277
11:00+25wnw35475 0.0 10121539
14:00+26wnw354172 0.0 10112258
17:00+21nw2569100 0.1 1011120
20:00+20nne2277100 0.0 101251
4 august, wed
wed423:00+19sw0070100 0.0 101211
02:00+18se1172100 0.0 101211
05:00+18sw1174100 0.0 101311
08:00+20sse017496 0.0 101458
11:00+26sw114580 0.0 10131090
14:00+28w133989 0.0 10132364
17:00+27sw134556 0.0 10121434
20:00+22ssw116993 0.0 101211
5 august, thu
thu523:00+19s237337 0.0 101242
02:00+18s26736 0.0 101196
05:00+17ssw237648 0.0 101159
08:00+21sse128230 1.4 1010131
11:00+27s345312 1.6 1010775
14:00+32wsw35375 0.0 10082037
17:00+32sw354013 0.0 10072045
20:00+25w227178 0.0 100622